Weather History for Crestview, FL

Change the Weather History Date:

Friday, November 11, 2011

  Actual Average Record
Temperature  
Mean Temperature 46 °F -  
Max Temperature 63 °F - - ()
Min Temperature 30 °F - - ()
Degree Days  
Heating Degree Days 18    
Moisture  
Dew Point 29 °F    
Average Humidity 57    
Maximum Humidity 90    
Minimum Humidity 24    
Precipitation  
Precipitation 0.00 in - - ()
Sea Level Pressure  
Sea Level Pressure 30.25 in    
Wind  
Wind Speed 5 mph (NNW)    
Max Wind Speed 12 mph    
Max Gust Speed -    
Visibility 10 miles    
Events      
T = Trace of Precipitation, MM = Missing Value Source: NWS Daily Summary

Daily Weather History Graph

Daily Weather History Graph

Search for Another Location

Airport:

Trip Planner

Search our weather history database for the weather conditions in past years. The results will help you decide how hot, cold, wet, or windy it might be!

Date:

Astronomy

Nov. 11, 2011 Rise Set
Actual Time 6:08 AM CST 4:51 PM CST
Civil Twilight 5:43 AM CST 5:16 PM CST
Nautical Twilight 5:14 AM CST 5:45 PM CST
Astronomical Twilight 4:46 AM CST 6:13 PM CST
Moon 5:26 PM CST (11/11) 6:50 AM CST (11/11)
Length of Visible Light 11h 32m
Length of Day
10h 42m
Full, 99% of the Moon is Illuminated
Nov 11
Full
Nov 18
Last Quarter
Nov 25
New
Dec 2
First Quarter
Dec 10
Full

Hourly Weather History & Observations

Time (CST) Temp. Windchill Dew Point Humidity Pressure Visibility Wind Dir Wind Speed Gust Speed Precip Events Conditions
12:55 AM 42.6 °F 37.8 °F 24.8 °F 49% 30.21 in 10.0 mi NNW 8.1 mph - N/A   Clear
1:55 AM 40.8 °F 36.2 °F 26.2 °F 56% 30.21 in 10.0 mi NNW 6.9 mph - N/A   Clear
2:55 AM 39.2 °F 35.0 °F 26.6 °F 61% 30.22 in 10.0 mi NNW 5.8 mph - N/A   Clear
3:55 AM 36.7 °F 34.1 °F 27.0 °F 68% 30.22 in 10.0 mi NW 3.5 mph - N/A   Clear
4:55 AM 30.7 °F 24.1 °F 27.1 °F 86% 30.24 in 10.0 mi NNW 6.9 mph - N/A   Clear
5:55 AM 31.3 °F 27.9 °F 27.0 °F 84% 30.26 in 10.0 mi NW 3.5 mph - N/A   Clear
6:55 AM 34.7 °F - 29.3 °F 81% 30.29 in 10.0 mi Calm Calm - N/A   Clear
7:55 AM 43.5 °F 40.9 °F 27.9 °F 54% 30.31 in 10.0 mi NNW 4.6 mph - N/A   Clear
8:55 AM 50.5 °F - 26.8 °F 40% 30.31 in 10.0 mi NNW 5.8 mph - N/A   Clear
9:55 AM 55.9 °F - 24.4 °F 30% 30.29 in 10.0 mi North 9.2 mph - N/A   Clear
10:55 AM 58.5 °F - 24.6 °F 27% 30.28 in 10.0 mi Variable 6.9 mph - N/A   Clear
11:55 AM 61.0 °F - 24.6 °F 25% 30.25 in 10.0 mi North 10.4 mph - N/A   Clear
12:55 PM 62.8 °F - 25.2 °F 24% 30.22 in 10.0 mi NNW 11.5 mph - N/A   Clear
1:55 PM 63.1 °F - 25.2 °F 24% 30.22 in 10.0 mi North 9.2 mph - N/A   Clear
2:55 PM 63.7 °F - 25.9 °F 24% 30.21 in 10.0 mi NNW 8.1 mph - N/A   Clear
3:55 PM 62.6 °F - 26.4 °F 25% 30.21 in 10.0 mi North 5.8 mph - N/A   Clear
4:55 PM 55.0 °F - 34.0 °F 45% 30.22 in 10.0 mi Calm Calm - N/A   Clear
5:55 PM 45.5 °F - 35.4 °F 68% 30.23 in 10.0 mi Calm Calm - N/A   Clear
6:55 PM 41.9 °F - 35.4 °F 78% 30.24 in 10.0 mi Calm Calm - N/A   Clear
7:55 PM 40.1 °F - 33.1 °F 76% 30.25 in 10.0 mi Calm Calm - N/A   Clear
8:55 PM 37.4 °F - 33.1 °F 84% 30.25 in 10.0 mi Calm Calm - N/A   Clear
9:55 PM 36.1 °F - 31.8 °F 84% 30.26 in 10.0 mi Calm Calm - N/A   Clear
10:55 PM 34.9 °F - 31.6 °F 88% 30.25 in 10.0 mi Calm Calm - N/A   Clear
11:55 PM 33.4 °F - 30.9 °F 90% 30.26 in 10.0 mi Calm Calm - N/A   Clear